TimeCDT,TemperatureF,Dew PointF,Humidity,Sea Level PressureIn,VisibilityMPH,Wind Direction,Wind SpeedMPH,Gust SpeedMPH,PrecipitationIn,Events,Conditions,WindDirDegrees,DateUTC
12:53 AM,69.1,66.0,90,30.05,7.0,Calm,Calm,-,N/A,,Clear,0,2012-11-03 05:53:00
1:53 AM,69.1,66.0,90,30.05,8.0,Calm,Calm,-,N/A,,Clear,0,2012-11-03 06:53:00
2:53 AM,68.0,64.9,90,30.05,9.0,Calm,Calm,-,N/A,,Clear,0,2012-11-03 07:53:00
3:53 AM,66.9,64.0,90,30.05,7.0,Calm,Calm,-,N/A,,Clear,0,2012-11-03 08:53:00
4:53 AM,68.0,64.9,90,30.07,8.0,Calm,Calm,-,N/A,,Clear,0,2012-11-03 09:53:00
5:53 AM,66.0,63.0,90,30.08,3.0,Calm,Calm,-,N/A,,Clear,0,2012-11-03 10:53:00
6:00 AM,64.4,62.6,94,30.08,1.8,Calm,Calm,-,N/A,,Partly Cloudy,0,2012-11-03 11:00:00
6:06 AM,64.4,62.6,94,30.09,0.8,Calm,Calm,-,N/A,,Mist,0,2012-11-03 11:06:00
6:10 AM,64.4,62.6,94,30.09,1.2,Calm,Calm,-,N/A,,Partly Cloudy,0,2012-11-03 11:10:00
6:14 AM,64.4,62.6,94,30.09,3.0,Calm,Calm,-,N/A,,Partly Cloudy,0,2012-11-03 11:14:00
6:18 AM,64.4,62.6,94,30.09,1.5,Calm,Calm,-,N/A,,Partly Cloudy,0,2012-11-03 11:18:00
6:22 AM,64.4,62.6,94,30.09,0.8,Calm,Calm,-,N/A,,Mist,0,2012-11-03 11:22:00
6:29 AM,64.4,62.6,94,30.09,1.2,Calm,Calm,-,N/A,,Scattered Clouds,0,2012-11-03 11:29:00
6:39 AM,64.4,62.6,94,30.09,2.5,Calm,Calm,-,N/A,,Partly Cloudy,0,2012-11-03 11:39:00
6:43 AM,62.6,60.8,94,30.09,1.0,Calm,Calm,-,N/A,,Mist,0,2012-11-03 11:43:00
6:50 AM,60.8,59.0,94,30.10,0.2,Calm,Calm,-,N/A,Fog,Fog,0,2012-11-03 11:50:00
6:53 AM,61.0,59.0,93,30.10,0.2,Calm,Calm,-,N/A,Fog,Fog,0,2012-11-03 11:53:00
7:50 AM,62.6,62.6,100,30.12,2.0,Calm,Calm,-,0.01,,Partly Cloudy,0,2012-11-03 12:50:00
7:53 AM,63.0,62.1,97,30.12,4.0,Calm,Calm,-,0.01,,Partly Cloudy,0,2012-11-03 12:53:00
8:53 AM,69.1,64.9,87,30.12,10.0,Variable,3.5,-,N/A,,Clear,0,2012-11-03 13:53:00
9:53 AM,73.0,64.0,73,30.13,10.0,NNW,3.5,-,N/A,,Clear,330,2012-11-03 14:53:00
10:53 AM,78.1,64.9,64,30.13,10.0,Variable,3.5,-,N/A,,Clear,0,2012-11-03 15:53:00
11:53 AM,75.0,66.0,73,30.12,10.0,Variable,3.5,-,N/A,,Clear,0,2012-11-03 16:53:00
12:53 PM,73.9,66.0,76,30.10,10.0,SW,6.9,-,N/A,,Clear,220,2012-11-03 17:53:00
1:53 PM,75.0,66.9,76,30.08,10.0,SSW,9.2,-,N/A,,Clear,210,2012-11-03 18:53:00
2:53 PM,75.9,66.9,74,30.06,10.0,SW,6.9,-,N/A,,Clear,220,2012-11-03 19:53:00
3:53 PM,75.0,66.9,76,30.06,10.0,SW,6.9,-,N/A,,Clear,230,2012-11-03 20:53:00
4:53 PM,75.0,66.9,76,30.05,10.0,SW,8.1,-,N/A,,Clear,230,2012-11-03 21:53:00
5:53 PM,73.0,68.0,84,30.05,10.0,WSW,3.5,-,N/A,,Clear,240,2012-11-03 22:53:00
6:53 PM,73.0,68.0,84,30.06,10.0,WSW,4.6,-,N/A,,Clear,250,2012-11-03 23:53:00
7:53 PM,72.0,68.0,87,30.07,10.0,WSW,5.8,-,N/A,,Clear,240,2012-11-04 00:53:00
8:53 PM,72.0,68.0,87,30.08,10.0,WSW,5.8,-,N/A,,Clear,250,2012-11-04 01:53:00
9:53 PM,72.0,68.0,87,30.08,10.0,WSW,4.6,-,N/A,,Unknown,240,2012-11-04 02:53:00
10:53 PM,71.1,68.0,90,30.08,10.0,Calm,Calm,-,N/A,,Clear,0,2012-11-04 03:53:00
11:53 PM,70.0,66.9,90,30.08,10.0,Calm,Calm,-,N/A,,Clear,0,2012-11-04 04:53:00